200 serials | norton driver tool registration key

Date Name Success Rate
2009-10-22 23:49:02 Norton Internet Security 2005 Registration Guide 0%
2011-09-08 10:44:59 Driver Guide Driver Guide Tool Kit 2.0.23 25%
2011-09-08 10:42:09 DAS Registration 1.5.2 69%
2011-09-08 10:42:09 DAS Registration For CW5 0%
2011-09-08 10:42:09 DAS Registration v1.5.2 0%
2009-10-17 06:27:02 Lazarus Registration DLL V1.0 59%
2009-10-22 23:48:48 MemoriesonTV Registration 0%
2009-10-22 23:49:42 Registration Wizard 40%
2011-09-08 10:06:47 AnetHelpTool v4.02 Registration 52%
2011-09-08 10:22:13 ByeLines Registration 60%
2011-09-08 10:57:42 Ftgate Registration 63%
2011-09-08 11:15:16 Infodex v2.10 Registration 0%
2011-09-08 11:25:08 Lazarus Registration DLL v1.0 0%
2011-09-08 11:27:46 Mac Opener v3.0 Registration 57%
2011-09-08 11:32:59 mIRC v4.5+ Registration 60%
2011-09-08 11:32:59 mIRC v4.52 Registration 60%
2011-09-08 12:37:02 Quant v2.0 Registration 0%
2011-09-08 12:41:14 Registration Suite 1.0 60%
2011-09-08 12:41:14 Registration Suite v1.0 60%
2011-09-08 12:41:14 Registration Wizard Pro 5.01 46%
2011-09-08 12:41:14 Registration Wizard Pro v5.01 60%
2011-09-08 13:18:59 WinHacker 95 v2.02 Registration 57%
2012-12-13 05:12:00 Registration Key : 526EFEF086E09600449E667EA2DAE8E2E6D642BC 83%
2009-10-22 23:27:21 Ardamax Keylogger 2.9 Registration 56%
2009-10-22 23:48:49 Microsoft Registration Hacker - 39%
2009-10-22 23:49:57 SoudForge ALL (No Registration Requiered) 0%
2009-10-22 23:50:26 Valve's Registration Armor Key-Gen 60%
2011-09-08 10:21:42 Browserola v1.01 Temp. Registration 0%
2011-09-08 10:56:11 FontLook v3.1 Registration Code 86%
2011-09-08 11:31:51 Microsoft Registration Hacker 0%
2011-09-08 11:31:51 Microsoft Registration Hacker - 0%
2011-09-08 11:31:51 Microsoft Registration HackerMSREGHACK 0%
2011-09-08 11:32:07 Microstation v5.xx.xx & 95 FULL REGISTRATION 48%
2011-09-08 11:42:43 Nic O'Matic 1.6 Registration Code 50%
2011-09-08 11:42:43 Nic O'Matic v1.6 Registration Code 55%
2011-09-08 12:34:57 PolyTrans V1.2E Registration Activator CD-Key 62%
2011-09-08 12:34:57 PolyView v2.9b16 Registration 0%
2011-09-08 12:54:09 Time Registration (German) 1.10 0%
2011-09-08 12:59:30 Super Collapse Registration 100%
2011-09-08 13:23:15 Yipe! II for Windows Registration #154 0%
2012-12-13 08:49:53 Softwarenetz Time Registration v1.10 0%
2012-12-13 08:49:56 Softwarenetz Time Registration v1.14 0%
2012-12-13 15:34:10 Valve's Registration Armor Key-Gen 0%
2009-10-22 23:48:17 Internet Download Manager Registration 50%
2011-09-08 10:25:56 Cheyenne Bitware V4.0 Registration Number 60%
2011-09-08 11:31:51 Microsoft Registration Hacker MSREGHACK 80%
2011-09-08 11:31:51 Microsoft Visual Basic 5 registration cd key 72%
2011-09-08 12:54:14 TimeSlips 10.5 enterprise - with registration code! 0%
2012-12-12 08:07:32 Download avast 5.0.667 Antivirus registration 0%
2012-12-13 05:12:00 Registration Code For PDFZilla Giveaway 0%
2012-12-13 05:12:00 Registration key for x-3gp-video-converter-38540 54%
2012-12-13 13:12:40 Total Image Converter Registration Key 57%
2011-09-08 11:30:16 MediaBlaze 98 v1.01 Win95/NT User: delphic Registration 0%
2012-12-13 05:12:00 Registration code:-826510-16101-266644 71%
2011-09-08 09:58:40 Acoustica Mixcraft v1.10 Build 15 Registration Info by MaBi 60%
2012-12-12 19:40:26 Microsoft Visual Basic 2008 Express Edition Registration key 20%
2009-10-22 23:49:02 Norton 12.7.0.2 24%
2009-10-22 23:49:02 Norton 360 43%
2009-10-22 23:49:02 Norton 360 V 3.0 20%
2009-10-22 23:49:02 Norton 360 V2 60%
2009-10-22 23:49:02 Norton 360 V3.5 0%
2012-12-12 22:50:50 Norton 19.8.0.14 0%
2012-12-12 22:50:53 Norton 360 5.0 38%
2012-12-12 22:51:07 Norton 360 v 2.0 0%
2012-12-12 22:51:19 Norton 360 V3.0 0%
2012-12-12 22:51:31 Norton 360 v4.0 0%
2012-12-12 22:51:34 Norton 360 V5 100%
2012-12-12 22:51:37 Norton 360 v5.0 73%
2012-12-12 22:51:48 Norton 36o 60%
2009-10-22 23:44:51 Bus Driver 55%
2009-10-22 23:46:28 Driver Max 66%
2011-09-08 10:24:26 CD Driver 1.20 59%
2011-09-08 10:24:26 CD Driver v1.20 54%
2011-09-08 13:17:23 Win Driver 7 0%
2009-10-17 06:21:18 DB Tool V2.0.1.118 69%
2009-10-17 06:27:55 MD5 Tool V1.0 0%
2009-10-22 23:46:25 DB-Tool 2.0.1.112 0%
2009-10-22 23:46:28 Doc's AAM Tool 1.5 0%
2009-10-22 23:48:47 MD5.Tool V1.0 0%
2009-10-22 23:49:52 SDI Tool 3.9.4 0%
2011-09-08 10:32:02 CRC Tool 1.2a 0%
2011-09-08 10:32:02 CRC Tool 1.2b 0%
2011-09-08 10:32:02 CRC Tool v1.2a 0%
2011-09-08 10:32:02 CRC Tool v1.2b 0%
2011-09-08 10:42:26 DB Tool v2.0.1.119 0%
2011-09-08 10:42:26 DB-Tool 2.0.1.112 0%
2011-09-08 10:42:26 DB-Tool v2.0.1.112 by iPA 0%
2011-09-08 10:44:22 Doc's AAM Tool 1.5 0%
2011-09-08 11:10:06 HX Box Tool 1.0J 0%
2011-09-08 11:10:06 HX Box Tool v1.0J 0%
2011-09-08 11:30:03 MD5 Tool 1.0 0%
2011-09-08 12:53:22 The Next Tool 1.92 100%
2011-09-08 12:53:22 The Next Tool v1.92 0%
2011-09-08 12:53:22 The Next Tool v1.x 0%
2011-09-08 12:56:21 TV Tool v1.8.4 0%
2011-09-08 12:56:21 TV Tool v9.6.2 0%
2012-12-12 08:02:42 Doc's AAM Tool 1.5 0%
2009-10-22 23:45:52 Clef Norton 360 2.0 80%
2009-10-22 23:49:02 Norton 2005 7.1 0%
2009-10-22 23:49:02 Norton 2007 0%
2009-10-22 23:49:02 Norton 2009 71%
2009-10-22 23:49:02 Norton 360 Beta 12%
2009-10-22 23:49:02 Norton 360 Premier 2.0 15%
2009-10-22 23:49:02 Norton 360 V2.0 {3 Year Key} 15%
2009-10-22 23:49:02 Norton 360 V3.5 NORMAL 0%
2009-10-22 23:49:02 Norton 360 Version 2.0 0%
2009-10-22 23:49:02 Norton AntiBot 0%
2009-10-22 23:49:02 Norton AntiBot 1.1.838 0%
2009-10-22 23:49:02 Norton AntiSpam 0%
2009-10-22 23:49:02 NORTON ANTIVIRUS 10.0.1.13 53%
2009-10-22 23:49:02 Norton Antivirus 12.6.01 23%
2009-10-22 23:49:02 Norton Antivirus Pro V 9.05.15 100%
2009-10-22 23:49:02 Norton AntyVirus 11.0.2.4 0%
2009-10-22 23:49:02 Norton Firewall2004 0%
2009-10-22 23:49:02 Norton Ghost 80%
2009-10-22 23:49:02 Norton Ghost 10 43%
2009-10-22 23:49:02 Norton Ghost 10.0 56%
2009-10-22 23:49:02 Norton Ghost 11 0%
2009-10-22 23:49:02 Norton Ghost 12 0%
2009-10-22 23:49:02 Norton Ghost 12.0 0%
2009-10-22 23:49:02 Norton Ghost 12.0 PL 0%
2009-10-22 23:49:02 Norton Ghost 14.0 0%
2009-10-22 23:49:02 Norton Ghost 6 0%
2009-10-22 23:49:02 Norton Ghost 9 54%
2009-10-22 23:49:02 Norton Ghost 9.0 0%
2009-10-22 23:49:02 Norton Ghost V12 0%
2009-10-22 23:49:02 Norton Ghost V12.0 0%
2009-10-22 23:49:02 Norton Ghost V14.0 30%
2009-10-22 23:49:02 Norton Gost V9.0 0%
2009-10-22 23:49:02 Norton PartitionMagic 8.05 0%
2009-10-22 23:49:02 Norton PartitionMagic V8.05 0%
2009-10-22 23:49:02 Norton SystemWorks 0%
2009-10-22 23:49:02 Norton Utilities 4.0.1 0%
2011-09-08 11:43:17 Norton Ghost 6.0 0%
2011-09-08 11:43:17 Norton Ghost 9 63%
2011-09-08 11:43:17 Norton Ghost 9.0 68%
2011-09-08 11:43:17 Norton Ghost v6.0 0%
2011-09-08 11:43:17 Norton Ghost v9.0 0%
2011-09-08 11:43:20 Norton Navigator NL 0%
2011-09-08 11:43:20 Norton PartitionMagic 8 0%
2011-09-08 11:43:20 Norton PartitionMagic v8.05 0%
2011-09-08 11:43:20 Norton SystemWorks 0%
2011-09-08 11:43:20 Norton Utilities 0%
2011-09-08 11:43:20 Norton Utilities 3.5.3 0%
2011-09-08 11:43:20 Norton Utilities 4.0.1 0%
2011-09-08 11:43:20 Norton Utilities 8.0.2 0%
2011-09-08 11:43:20 Norton Utilities v4.0.1 0%
2012-12-12 22:50:51 Norton 2010 0%
2012-12-12 22:50:52 Norton 2012 0%
2012-12-12 22:50:53 Norton 360 2012 20%
2012-12-12 22:50:53 Norton 360 4.0 beta 0%
2012-12-12 22:51:43 Norton 360 version 5 0%
2012-12-12 22:51:46 Norton 360 Version 6.0 20%
2012-12-12 22:55:16 Norton Ghost 15 0%
2012-12-12 22:55:19 Norton ghost 15.0 100 0%
2012-12-12 22:57:37 Norton UI Stub 54%
2012-12-12 22:57:40 Norton Utilities 15 0%
2009-10-17 06:21:40 Driver Cleaner NET V3.2.0.0-SUN 15%
2009-10-17 06:21:40 Driver Genius Pro V7.1.622 54%
2009-10-17 06:21:40 Driver Genius Pro V8.0 68%
2009-10-17 06:21:40 Driver Magician V2.8 79%
2009-10-22 23:27:23 Art Print Driver 1.2 0%
2009-10-22 23:27:27 AVer TV GO 1.20 Driver 66%
2009-10-22 23:46:28 Driver Checker 2.x 0%
2009-10-22 23:46:28 Driver Checker V2.7.2 71%
2009-10-22 23:46:28 Driver Checker V2.7.3 50%
2009-10-22 23:46:28 Driver Detective 49%
2009-10-22 23:46:28 Driver Detective 40%
2009-10-22 23:46:28 Driver Detective 45%
2009-10-22 23:46:28 Driver Detective 58%
2009-10-22 23:46:28 Driver Detective 6 70%
2009-10-22 23:46:28 Driver Detective 6.2.5.0 71%
2009-10-22 23:46:28 Driver Detective 6.3.1.0 71%
2009-10-22 23:46:28 Driver Detective 6.3.1.2 68%
2009-10-22 23:46:28 Driver Detective 6.3.5.1 62%
2009-10-22 23:46:28 Driver DETECTIVE 6.4.0. 56%
2009-10-22 23:46:28 Driver Detective 6.4.0.7 40%
2009-10-22 23:46:28 Driver Detective 6.4.1.2 84%
2009-10-22 23:46:28 Driver DETECTIVE 6.4.1.5 64%
2009-10-22 23:46:28 Driver Detective 6.4.1.5 65%
2009-10-22 23:46:28 Driver Detective V6.2.5.0 61%
2009-10-22 23:46:28 Driver Detectve 6.41 80%
2009-10-22 23:46:28 Driver Extractor 1.0 0%
2009-10-22 23:46:28 Driver Extractor V1.0 0%
2009-10-22 23:46:28 Driver For Genius Web Cam V4 54%
2009-10-22 23:46:28 Driver Genius 83%
2009-10-22 23:46:28 Driver Genius 5 0%
2009-10-22 23:46:28 Driver Genius 6 0%
2009-10-22 23:46:28 Driver Genius 9 Pro 84%
2009-10-22 23:46:28 Driver Genius Pro 0%
2009-10-22 23:46:28 Driver Genius Pro 1.50 56%
2009-10-22 23:46:28 Driver Genius Pro 1.7 9%
2009-10-22 23:46:28 Driver Genius Pro 2 0%
2009-10-22 23:46:28 Driver Genius Pro 9.0.0.178 60%
2009-10-22 23:46:28 Driver Genius Pro V8.0 56%
2009-10-22 23:46:28 Driver Genius Pro Ver 7 0%
2009-10-22 23:46:28 Driver Genius Pro.7z 63%
2009-10-22 23:46:28 Driver Genius V.5.0 0%
2009-10-22 23:46:28 Driver Magic 2.0 56%
2009-10-22 23:46:28 Driver Magician 1.41 0%